Weather History for Poplar Bluff, MO

Change the Weather History Date:

Monday, December 10, 2012

  Actual Average Record
Temperature  
Mean Temperature 35 °F -  
Max Temperature 46 °F 47 °F 77 °F (1918)
Min Temperature 24 °F 29 °F 6 °F (1919)
Degree Days  
Heating Degree Days 30    
Moisture  
Dew Point 25 °F    
Average Humidity 69    
Maximum Humidity 80    
Minimum Humidity 55    
Precipitation  
Precipitation 0.00 in - - ()
Sea Level Pressure  
Sea Level Pressure 29.98 in    
Wind  
Wind Speed 10 mph (NW)    
Max Wind Speed 16 mph    
Max Gust Speed 21 mph    
Visibility 10 miles    
Events      
Averages and records for this station are not official NWS values.
T = Trace of Precipitation, MM = Missing Value Source: NWS Daily Summary

Daily Weather History Graph

Daily Weather History Graph

Search for Another Location

Airport:

Trip Planner

Search our weather history database for the weather conditions in past years. The results will help you decide how hot, cold, wet, or windy it might be!

Date:

Astronomy

Dec. 10, 2012 Rise Set
Actual Time 7:03 AM CST 4:45 PM CST
Civil Twilight 6:34 AM CST 5:14 PM CST
Nautical Twilight 6:02 AM CST 5:46 PM CST
Astronomical Twilight 5:30 AM CST 6:17 PM CST
Moon 3:49 AM CST (12/10) 2:32 PM CST (12/10)
Length of Visible Light 10h 39m
Length of Day
9h 41m
Waning Crescent, 10% of the Moon is Illuminated
Dec 10
Waning Crescent
Dec 13
New
Dec 19
First Quarter
Dec 28
Full
Jan 4
Last Quarter

Hourly Weather History & Observations

Time (CST) Temp. Windchill Dew Point Humidity Pressure Visibility Wind Dir Wind Speed Gust Speed Precip Events Conditions
12:44 AM 46.4 °F 41.9 °F 39.2 °F 76% 29.86 in 10.0 mi NNW 9.2 mph - N/A   Overcast
12:53 AM 46.9 °F - 39.0 °F 74% 29.86 in 10.0 mi NNW 11.5 mph - N/A   Overcast
1:53 AM 45.0 °F 39.7 °F 34.0 °F 65% 29.87 in 10.0 mi NNW 10.4 mph 19.6 mph N/A   Overcast
2:53 AM 43.0 °F 38.2 °F 34.0 °F 71% 29.86 in 10.0 mi NNW 8.1 mph - N/A   Clear
3:23 AM 42.8 °F 40.1 °F 35.6 °F 76% 29.86 in 10.0 mi North 4.6 mph - N/A   Mostly Cloudy
3:31 AM 42.8 °F 37.0 °F 33.8 °F 70% 29.86 in 10.0 mi NNW 10.4 mph - N/A   Scattered Clouds
3:53 AM 41.0 °F 34.3 °F 33.1 °F 73% 29.86 in 10.0 mi North 11.5 mph - N/A   Clear
4:53 AM 37.9 °F 30.5 °F 28.9 °F 70% 29.88 in 10.0 mi NW 11.5 mph - N/A   Clear
5:53 AM 35.1 °F 27.9 °F 26.1 °F 70% 29.90 in 10.0 mi NW 9.2 mph - N/A   Clear
6:53 AM 33.1 °F 24.9 °F 24.1 °F 70% 29.93 in 10.0 mi NW 10.4 mph 19.6 mph N/A   Partly Cloudy
7:53 AM 32.0 °F 22.1 °F 23.0 °F 69% 29.96 in 10.0 mi NW 13.8 mph - N/A   Overcast
8:53 AM 32.0 °F 21.6 °F 23.0 °F 69% 29.96 in 10.0 mi NW 15.0 mph - N/A   Overcast
9:53 AM 33.1 °F 23.4 °F 23.0 °F 66% 29.97 in 10.0 mi NW 13.8 mph - N/A   Overcast
10:53 AM 33.1 °F 23.4 °F 23.0 °F 66% 29.98 in 10.0 mi NW 13.8 mph 20.7 mph N/A   Overcast
11:53 AM 33.1 °F 24.4 °F 21.9 °F 64% 29.96 in 10.0 mi NW 11.5 mph - N/A   Overcast
12:51 PM 33.8 °F 24.3 °F 23.0 °F 65% 29.93 in 10.0 mi NNW 13.8 mph - N/A   Overcast
12:53 PM 34.0 °F 24.6 °F 23.0 °F 64% 29.95 in 10.0 mi NNW 13.8 mph - N/A   Overcast
1:03 PM 35.6 °F 27.5 °F 24.8 °F 65% 29.94 in 10.0 mi NNW 11.5 mph - N/A   Overcast
1:10 PM 33.8 °F 24.8 °F 23.0 °F 65% 29.94 in 10.0 mi NNW 12.7 mph - N/A   Overcast
1:31 PM 35.6 °F 26.2 °F 23.0 °F 60% 29.94 in 10.0 mi NNW 15.0 mph - N/A   Mostly Cloudy
1:53 PM 36.0 °F 27.5 °F 23.0 °F 59% 29.95 in 10.0 mi NW 12.7 mph - N/A   Mostly Cloudy
2:53 PM 37.9 °F 30.0 °F 23.0 °F 55% 29.96 in 10.0 mi WNW 12.7 mph - N/A   Mostly Cloudy
3:53 PM 35.1 °F 26.4 °F 23.0 °F 61% 30.00 in 10.0 mi NNW 12.7 mph - N/A   Overcast
4:53 PM 34.0 °F 23.8 °F 23.0 °F 64% 30.02 in 10.0 mi North 16.1 mph - N/A   Overcast
5:53 PM 33.1 °F 23.4 °F 21.9 °F 64% 30.05 in 10.0 mi NNW 13.8 mph - N/A   Overcast
6:53 PM 30.9 °F 23.5 °F 21.9 °F 69% 30.06 in 10.0 mi NNW 8.1 mph - N/A   Clear
7:53 PM 30.0 °F 24.1 °F 21.0 °F 69% 30.08 in 10.0 mi NW 5.8 mph - N/A   Clear
8:53 PM 28.9 °F 21.9 °F 21.0 °F 72% 30.09 in 10.0 mi NW 6.9 mph - N/A   Clear
9:53 PM 28.0 °F 24.2 °F 19.9 °F 72% 30.11 in 10.0 mi NW 3.5 mph - N/A   Clear
10:23 PM 26.6 °F - 19.4 °F 74% 30.09 in 10.0 mi Calm Calm - N/A   Mostly Cloudy
10:53 PM 28.0 °F - 19.9 °F 72% 30.12 in 10.0 mi Calm Calm - N/A   Mostly Cloudy
11:14 PM 26.6 °F - 21.2 °F 80% 30.10 in 10.0 mi Calm Calm - N/A   Scattered Clouds
11:33 PM 26.6 °F 22.6 °F 19.4 °F 74% 30.10 in 10.0 mi WNW 3.5 mph - N/A   Mostly Cloudy
11:40 PM 24.8 °F 19.1 °F 19.4 °F 80% 30.11 in 10.0 mi WNW 4.6 mph - N/A   Scattered Clouds
11:53 PM 26.1 °F 21.9 °F 19.9 °F 78% 30.14 in 10.0 mi WNW 3.5 mph - N/A   Mostly Cloudy